FW0942 Weather Reports


Display with metric or nautical units.
time (UTC)temp
F
wind
direction
speed
MPH
gust
MPH
rain 1hr
in
rain 24hr
in
rain mn
in
humidity
%
barometer
mb
20210916153621 82 209 4.0 10.0 0.00 0.00 0.00 59 1014.4
20210916153113 82 166 3.0 10.0 0.00 0.00 0.00 59 1014.0
20210916152607 83 160 3.0 10.0 0.00 0.00 0.00 60 1014.4
20210916152104 82 229 1.0 10.0 0.00 0.00 0.00 60 1014.4
20210916151555 83 156 1.0 8.0 0.00 0.00 0.00 61 1014.4
20210916151050 81 75 2.0 8.0 0.00 0.00 0.00 62 1014.4
20210916150546 82 129 3.0 8.0 0.00 0.00 0.00 63 1014.4
20210916150038 80 112 1.0 10.0 0.00 0.00 0.00 64 1014.4
20210916145532 80 64 2.0 8.0 0.00 0.00 0.00 64 1014.4
20210916145028 80 158 2.0 10.0 0.00 0.00 0.00 64 1014.4
20210916144520 79 95 5.0 10.0 0.00 0.00 0.00 65 1014.4
20210916144014 79 191 2.0 8.0 0.00 0.00 0.00 65 1014.4
20210916143511 80 108 1.0 8.0 0.00 0.00 0.00 65 1014.4
20210916143002 80 101 2.0 8.0 0.00 0.00 0.00 68 1014.0
20210916142457 79 106 3.0 8.0 0.00 0.00 0.00 69 1014.0
20210916141954 79 79 2.0 8.0 0.00 0.00 0.00 70 1014.0
20210916141445 79 160 2.0 8.0 0.00 0.00 0.00 71 1014.0
20210916140940 77 161 2.0 8.0 0.00 0.00 0.00 72 1013.7
20210916140437 77 102 5.0 8.0 0.00 0.00 0.00 73 1014.0
20210916135928 77 109 3.0 5.0 0.00 0.00 0.00 74 1014.0
20210916135422 77 112 0.0 8.0 0.00 0.00 0.00 75 1014.0
20210916134919 77 94 3.0 8.0 0.00 0.00 0.00 76 1014.0
20210916134410 76 180 0.0 5.0 0.00 0.00 0.00 79 1014.0
20210916133905 77 165 1.0 5.0 0.00 0.00 0.00 84 1014.0
20210916133403 76 174 0.0 2.0 0.00 0.00 0.00 91 1014.0
20210916132853 75 170 0.0 0.0 0.00 0.00 0.00 94 1014.0
20210916132348 72 189 0.0 0.0 0.00 0.00 0.00 92 1013.7
20210916131844 71 192 0.0 0.0 0.00 0.00 0.00 93 1013.7
20210916131337 71 200 0.0 0.0 0.00 0.00 0.00 93 1013.7
20210916130830 71 200 0.0 0.0 0.00 0.00 0.00 93 1013.7
20210916130328 70 206 0.0 0.0 0.00 0.00 0.00 93 1013.7
20210916125819 70 199 0.0 0.0 0.00 0.00 0.00 93 1013.7
20210916125313 70 200 0.0 0.0 0.00 0.00 0.00 93 1013.7
20210916124810 70 187 0.0 0.0 0.00 0.00 0.00 94 1013.4
20210916124302 70 190 0.0 0.0 0.00 0.00 0.00 95 1013.4
20210916123755 70 174 0.0 0.0 0.00 0.00 0.00 95 1013.4
20210916123252 69 194 0.0 0.0 0.00 0.00 0.00 95 1013.4
20210916122744 69 178 0.0 0.0 0.00 0.00 0.00 95 1013.4
20210916122238 69 195 0.0 0.0 0.00 0.00 0.00 94 1013.0
20210916121734 69 199 0.0 0.0 0.00 0.00 0.00 94 1013.0
20210916121226 69 199 0.0 0.0 0.00 0.00 0.00 94 1013.0
20210916120721 69 200 0.0 0.0 0.00 0.00 0.00 94 1013.0
20210916120217 69 201 0.0 0.0 0.00 0.00 0.00 94 1013.0
20210916115709 69 204 0.0 0.0 0.00 0.00 0.00 94 1013.0
20210916115204 69 213 0.0 0.0 0.00 0.00 0.00 94 1013.0
20210916114700 69 199 0.0 0.0 0.00 0.00 0.00 94 1013.0
20210916114152 69 202 0.0 0.0 0.00 0.00 0.00 94 1012.7
20210916113646 69 201 0.0 0.0 0.00 0.00 0.00 94 1012.7
20210916113142 69 184 0.0 0.0 0.00 0.00 0.00 94 1012.7
20210916112634 69 192 0.0 0.0 0.00 0.00 0.00 94 1012.7
20210916112128 69 195 0.0 0.0 0.00 0.00 0.00 94 1012.7
20210916111626 69 183 0.0 0.0 0.00 0.00 0.00 94 1012.7
20210916111116 69 195 0.0 0.0 0.00 0.00 0.00 94 1012.7
20210916110612 69 200 0.0 0.0 0.00 0.00 0.00 94 1012.7
20210916110108 69 201 0.0 0.0 0.00 0.00 0.00 93 1012.3
20210916105600 70 192 0.0 0.0 0.00 0.00 0.00 93 1012.7
20210916105053 69 195 0.0 0.0 0.00 0.00 0.00 93 1012.3
20210916104550 69 200 0.0 0.0 0.00 0.00 0.00 93 1012.3
20210916104042 69 200 0.0 0.0 0.00 0.00 0.00 93 1012.3
20210916103537 69 199 0.0 0.0 0.00 0.00 0.00 93 1012.3
20210916103033 69 201 0.0 0.0 0.00 0.00 0.00 93 1012.3
20210916102525 69 206 0.0 0.0 0.00 0.00 0.00 93 1012.3
20210916102019 69 203 0.0 0.0 0.00 0.00 0.00 93 1012.3
20210916101515 69 200 0.0 0.0 0.00 0.00 0.00 93 1012.3
20210916101007 69 199 0.0 0.0 0.00 0.00 0.00 93 1012.3
20210916100501 69 195 0.0 0.0 0.00 0.00 0.00 92 1012.3
20210916095958 69 200 0.0 0.0 0.00 0.00 0.00 93 1012.3
20210916095450 69 208 0.0 0.0 0.00 0.00 0.00 93 1012.0
20210916094945 69 199 0.0 0.0 0.00 0.00 0.00 92 1012.3
20210916094441 69 202 0.0 0.0 0.00 0.00 0.00 92 1012.0
20210916093932 69 200 0.0 0.0 0.00 0.00 0.00 92 1012.0
20210916093426 69 200 0.0 0.0 0.00 0.00 0.00 92 1012.3
20210916092923 69 198 0.0 0.0 0.00 0.00 0.00 92 1012.0
20210916092416 70 199 0.0 0.0 0.00 0.00 0.00 92 1012.3
20210916091909 70 200 0.0 0.0 0.00 0.00 0.00 91 1012.0
20210916091406 70 200 0.0 0.0 0.00 0.00 0.00 92 1012.3
20210916090858 70 204 0.0 0.0 0.00 0.00 0.00 91 1012.3
20210916090352 70 200 0.0 0.0 0.00 0.00 0.00 92 1012.0
20210916085849 70 209 0.0 0.0 0.00 0.00 0.00 91 1012.0
20210916085340 70 200 0.0 0.0 0.00 0.00 0.00 91 1012.0
20210916084835 70 199 0.0 0.0 0.00 0.00 0.00 91 1012.0
20210916084331 70 201 0.0 0.0 0.00 0.00 0.00 91 1012.0
20210916083823 70 206 0.0 0.0 0.00 0.00 0.00 91 1012.3
20210916083317 70 201 0.0 0.0 0.00 0.00 0.00 91 1012.0
20210916082814 70 196 0.0 0.0 0.00 0.00 0.00 91 1012.0
20210916082306 70 202 0.0 0.0 0.00 0.00 0.00 91 1012.3
20210916081800 70 209 0.0 0.0 0.00 0.00 0.00 91 1012.3
20210916081257 70 210 0.0 0.0 0.00 0.00 0.00 91 1012.3
20210916080749 70 209 0.0 0.0 0.00 0.00 0.00 91 1012.3
20210916080243 70 199 0.0 0.0 0.00 0.00 0.00 90 1012.0
20210916075740 71 202 0.0 0.0 0.00 0.00 0.00 90 1012.3
20210916075230 71 206 0.0 0.0 0.00 0.00 0.00 90 1012.3
20210916074725 71 199 0.0 0.0 0.00 0.00 0.00 90 1012.3
20210916074222 71 202 0.0 0.0 0.00 0.00 0.00 90 1012.3
20210916073713 71 200 0.0 0.0 0.00 0.00 0.00 90 1012.3
20210916073207 71 199 0.0 0.0 0.00 0.00 0.00 90 1012.3
20210916072704 70 200 0.0 0.0 0.00 0.00 0.00 90 1012.3
20210916072156 71 200 0.0 0.0 0.00 0.00 0.00 90 1012.3
20210916071651 71 199 0.0 0.0 0.00 0.00 0.00 90 1012.3
20210916071148 71 201 0.0 0.0 0.00 0.00 0.00 89 1012.3
20210916070639 71 201 0.0 0.0 0.00 0.00 0.00 89 1012.3
20210916070133 71 201 0.0 0.0 0.00 0.00 0.00 89 1012.3
20210916065630 71 198 0.0 0.0 0.00 0.00 0.00 89 1012.3
20210916065121 71 202 0.0 0.0 0.00 0.00 0.00 89 1012.3
20210916064616 71 202 0.0 0.0 0.00 0.00 0.00 89 1012.7
20210916064112 71 201 0.0 0.0 0.00 0.00 0.00 89 1012.7
20210916063604 71 200 0.0 0.0 0.00 0.00 0.00 89 1012.7
20210916063058 71 197 0.0 0.0 0.00 0.00 0.00 89 1012.7
20210916062555 71 201 0.0 0.0 0.00 0.00 0.00 89 1012.7
20210916062047 71 201 0.0 0.0 0.00 0.00 0.00 89 1012.7
20210916061541 72 206 0.0 0.0 0.00 0.00 0.00 88 1012.7
20210916061037 72 201 0.0 0.0 0.00 0.00 0.00 87 1012.3
20210916060529 72 201 0.0 0.0 0.00 0.00 0.00 87 1012.7
20210916060024 72 212 0.0 0.0 0.00 0.00 0.00 86 1012.3
20210916055520 72 208 0.0 0.0 0.00 0.00 0.00 86 1012.3
20210916055012 72 204 0.0 0.0 0.00 0.00 0.00 86 1012.3
20210916054506 72 201 0.0 0.0 0.00 0.00 0.00 86 1012.3
20210916054002 72 204 0.0 0.0 0.00 0.00 0.00 86 1012.7
20210916053454 72 206 0.0 0.0 0.00 0.00 0.00 86 1012.3
20210916052949 72 202 0.0 0.0 0.00 0.00 0.00 86 1012.3
20210916052446 73 202 0.0 0.0 0.00 0.00 0.00 86 1012.3
20210916051937 74 208 0.0 0.0 0.00 0.00 0.00 88 1012.7
20210916051432 74 204 0.0 0.0 0.00 0.00 0.00 87 1012.3
20210916050927 74 207 0.0 0.0 0.00 0.00 0.00 87 1012.3
20210916050420 74 204 0.0 0.0 0.00 0.00 0.00 87 1012.3
20210916045914 74 201 0.0 0.0 0.00 0.00 0.00 87 1012.3
20210916045411 74 201 0.0 0.0 0.00 0.00 0.00 87 1012.3
20210916044902 74 202 0.0 0.0 0.00 0.00 0.00 87 1012.3
20210916044356 75 215 0.0 0.0 0.00 0.00 0.00 87 1012.3
20210916043853 75 204 0.0 0.0 0.00 0.00 0.00 86 1012.7
20210916043344 75 207 0.0 0.0 0.00 0.00 0.00 86 1012.3
20210916042839 75 209 0.0 0.0 0.00 0.00 0.00 86 1012.3
20210916042335 75 197 0.0 0.0 0.00 0.00 0.00 85 1012.3
20210916041827 75 198 0.0 0.0 0.00 0.00 0.00 84 1012.3
20210916041322 75 200 0.0 0.0 0.00 0.00 0.00 82 1012.3
20210916040819 75 199 0.0 0.0 0.00 0.00 0.00 82 1012.7
20210916040310 75 201 0.0 0.0 0.00 0.00 0.00 82 1012.7
20210916035804 76 209 0.0 0.0 0.00 0.00 0.00 82 1012.7
20210916035305 76 200 0.0 0.0 0.00 0.00 0.00 81 1012.7
20210916034752 76 200 0.0 0.0 0.00 0.00 0.00 79 1012.7
20210916034247 76 200 0.0 0.0 0.00 0.00 0.00 79 1012.7
20210916033743 76 200 0.0 0.0 0.00 0.00 0.00 79 1012.3
20210916033235 76 200 0.0 0.0 0.00 0.00 0.00 79 1012.7
20210916032729 76 201 0.0 0.0 0.00 0.00 0.00 79 1012.3
20210916032226 76 201 0.0 0.0 0.00 0.00 0.00 79 1012.3
20210916031718 77 201 0.0 0.0 0.00 0.00 0.00 79 1012.3
20210916031212 77 201 0.0 0.0 0.00 0.00 0.00 79 1012.3
20210916030709 77 200 0.0 0.0 0.00 0.00 0.00 79 1012.3
20210916030201 77 199 0.0 0.0 0.00 0.00 0.00 78 1012.3
20210916025655 77 198 0.0 0.0 0.00 0.00 0.00 76 1012.3
20210916025151 77 200 0.0 0.0 0.00 0.00 0.00 75 1012.3
20210916024643 77 201 0.0 0.0 0.00 0.00 0.00 75 1012.3
20210916024137 77 200 0.0 0.0 0.00 0.00 0.00 75 1012.3
20210916023634 77 198 0.0 0.0 0.00 0.00 0.00 74 1012.3
20210916023125 77 201 0.0 0.0 0.00 0.00 0.00 73 1012.0
20210916022620 77 198 0.0 0.0 0.00 0.00 0.00 72 1012.0
20210916022116 78 200 0.0 0.0 0.00 0.00 0.00 71 1012.0
20210916021608 79 200 0.0 0.0 0.00 0.00 0.00 71 1012.0
20210916021102 79 201 0.0 0.0 0.00 0.00 0.00 72 1012.0
20210916020559 79 200 0.0 0.0 0.00 0.00 0.00 72 1011.7
20210916020051 79 203 0.0 0.0 0.00 0.00 0.00 71 1011.7
20210916015545 79 199 0.0 0.0 0.00 0.00 0.00 70 1011.7
20210916015042 79 200 0.0 0.0 0.00 0.00 0.00 70 1011.7
20210916014533 79 199 0.0 0.0 0.00 0.00 0.00 68 1011.7
20210916014028 79 196 0.0 0.0 0.00 0.00 0.00 67 1011.7
20210916013525 80 201 0.0 0.0 0.00 0.00 0.00 66 1011.7
20210916013016 81 200 0.0 0.0 0.00 0.00 0.00 64 1011.7
20210916012511 81 201 0.0 0.0 0.00 0.00 0.00 63 1011.3
20210916012007 81 199 0.0 0.0 0.00 0.00 0.00 62 1011.3
20210916011459 82 196 0.0 0.0 0.00 0.00 0.00 61 1011.3
20210916010953 82 200 0.0 0.0 0.00 0.00 0.00 60 1011.3
20210916010450 82 199 0.0 0.0 0.00 0.00 0.00 60 1011.3
20210916005941 82 191 0.0 2.0 0.00 0.00 0.00 58 1011.3
20210916005435 83 190 0.0 2.0 0.00 0.00 0.00 58 1011.0
20210916004932 83 74 1.0 5.0 0.00 0.00 0.00 57 1011.0
20210916004424 83 196 0.0 5.0 0.00 0.00 0.00 56 1011.0
20210916003918 84 137 1.0 5.0 0.00 0.00 0.00 56 1011.0
20210916003415 84 196 0.0 5.0 0.00 0.00 0.00 54 1011.0
20210916002906 84 129 2.0 5.0 0.00 0.00 0.00 53 1011.0
20210916002400 85 168 0.0 5.0 0.00 0.00 0.00 53 1011.0
20210916001859 85 156 1.0 5.0 0.00 0.00 0.00 53 1011.0
20210916001349 85 161 0.0 5.0 0.00 0.00 0.00 52 1011.0
20210916000843 85 162 0.0 5.0 0.00 0.00 0.00 52 1011.0
20210916000340 86 156 1.0 5.0 0.00 0.00 0.00 51 1010.5
20210915235831 86 177 0.0 5.0 0.00 0.00 0.00 50 1010.5
20210915235326 87 163 1.0 5.0 0.00 0.00 0.00 50 1010.5
20210915234822 87 169 4.0 8.0 0.00 0.00 0.00 50 1010.5
20210915234314 87 160 0.0 8.0 0.00 0.00 0.00 48 1010.5
20210915233808 87 182 1.0 8.0 0.00 0.00 0.00 47 1010.5
20210915233306 87 158 3.0 8.0 0.00 0.00 0.00 48 1010.5
20210915232757 87 170 3.0 8.0 0.00 0.00 0.00 48 1010.5
20210915232251 88 190 0.0 8.0 0.00 0.00 0.00 45 1010.5
20210915231748 88 198 1.0 8.0 0.00 0.00 0.00 46 1010.5
20210915231239 88 163 0.0 10.0 0.00 0.00 0.00 47 1010.5
20210915230734 87 146 2.0 10.0 0.00 0.00 0.00 49 1010.5
20210915230231 87 202 0.0 5.0 0.00 0.00 0.00 48 1010.5
20210915225722 88 205 0.0 8.0 0.00 0.00 0.00 46 1010.5
20210915225216 89 160 1.0 8.0 0.00 0.00 0.00 44 1010.5
20210915224714 89 156 4.0 8.0 0.00 0.00 0.00 44 1010.5
20210915224204 89 109 5.0 8.0 0.00 0.00 0.00 42 1010.5
20210915223659 92 170 2.0 5.0 0.00 0.00 0.00 40 1010.5
20210915223155 89 216 4.0 8.0 0.00 0.00 0.00 43 1010.5
20210915222647 89 163 1.0 8.0 0.00 0.00 0.00 43 1010.2
20210915222141 89 101 3.0 8.0 0.00 0.00 0.00 43 1010.5
20210915221639 90 195 0.0 10.0 0.00 0.00 0.00 41 1010.5
20210915221129 89 161 6.0 10.0 0.00 0.00 0.00 41 1010.2
20210915220624 91 167 0.0 8.0 0.00 0.00 0.00 40 1010.2
20210915220121 92 46 3.0 8.0 0.00 0.00 0.00 39 1010.5
20210915215613 91 70 2.0 5.0 0.00 0.00 0.00 41 1010.5
20210915215106 90 98 1.0 13.0 0.00 0.00 0.00 42 1010.5
20210915214603 90 135 2.0 13.0 0.00 0.00 0.00 42 1010.5
20210915214055 91 259 2.0 10.0 0.00 0.00 0.00 41 1010.5
20210915213550 91 241 0.0 10.0 0.00 0.00 0.00 41 1010.2
20210915213046 90 105 5.0 10.0 0.00 0.00 0.00 41 1010.5
20210915212538 89 192 0.0 10.0 0.00 0.00 0.00 43 1010.5
20210915212031 88 97 6.0 10.0 0.00 0.00 0.00 42 1010.5
20210915211529 89 275 4.0 10.0 0.00 0.00 0.00 44 1010.5
20210915211020 88 93 3.0 10.0 0.00 0.00 0.00 45 1010.5
20210915210514 88 246 1.0 8.0 0.00 0.00 0.00 42 1010.5
20210915210011 90 201 2.0 8.0 0.00 0.00 0.00 43 1010.5
20210915205503 89 207 5.0 8.0 0.00 0.00 0.00 43 1010.5
20210915204958 90 52 2.0 8.0 0.00 0.00 0.00 43 1010.5
20210915203945 88 109 2.0 13.0 0.00 0.00 0.00 49 1011.0
20210915203440 87 104 3.0 13.0 0.00 0.00 0.00 49 1011.0
20210915202936 89 120 6.0 8.0 0.00 0.00 0.00 45 1011.0
20210915202428 88 174 1.0 10.0 0.00 0.00 0.00 46 1011.0
20210915201922 89 102 6.0 10.0 0.00 0.00 0.00 44 1011.3
20210915201419 88 164 4.0 10.0 0.00 0.00 0.00 48 1011.3
20210915200910 87 110 2.0 8.0 0.00 0.00 0.00 49 1011.3
20210915200405 87 158 4.0 8.0 0.00 0.00 0.00 49 1011.7
20210915195901 87 345 2.0 8.0 0.00 0.00 0.00 49 1011.7
20210915195353 88 107 3.0 8.0 0.00 0.00 0.00 47 1011.7
20210915194847 88 195 1.0 13.0 0.00 0.00 0.00 47 1011.7
20210915194345 89 73 3.0 13.0 0.00 0.00 0.00 46 1011.7
20210915193835 88 73 2.0 10.0 0.00 0.00 0.00 46 1011.7
20210915193330 88 104 6.0 10.0 0.00 0.00 0.00 47 1011.7
20210915192827 87 194 1.0 10.0 0.00 0.00 0.00 48 1012.0
20210915192318 89 202 2.0 10.0 0.00 0.00 0.00 48 1012.0
20210915191813 87 132 3.0 15.0 0.00 0.00 0.00 50 1012.0
20210915191309 87 128 2.0 10.0 0.00 0.00 0.00 50 1012.0
20210915190801 87 176 1.0 10.0 0.00 0.00 0.00 50 1012.0
20210915190254 88 56 2.0 10.0 0.00 0.00 0.00 49 1012.0
20210915185752 89 112 2.0 10.0 0.00 0.00 0.00 49 1012.3
20210915185243 89 163 4.0 10.0 0.00 0.00 0.00 49 1012.3
20210915184737 87 114 1.0 10.0 0.00 0.00 0.00 51 1012.3
20210915184234 87 78 3.0 8.0 0.00 0.00 0.00 50 1012.3
20210915183727 87 131 3.0 8.0 0.00 0.00 0.00 51 1012.7
20210915183220 87 162 2.0 10.0 0.00 0.00 0.00 50 1012.7
20210915182717 88 95 2.0 10.0 0.00 0.00 0.00 50 1012.7
20210915182209 88 127 2.0 10.0 0.00 0.00 0.00 50 1012.7
20210915181703 87 27 4.0 13.0 0.00 0.00 0.00 52 1012.7
20210915181159 86 77 6.0 13.0 0.00 0.00 0.00 52 1012.7
20210915180651 86 99 5.0 15.0 0.00 0.00 0.00 53 1012.7
20210915180145 84 59 4.0 15.0 0.00 0.00 0.00 53 1013.0
20210915175642 85 124 6.0 13.0 0.00 0.00 0.00 53 1013.0
20210915175134 84 172 6.0 13.0 0.00 0.00 0.00 53 1013.0
20210915174628 84 166 1.0 13.0 0.00 0.00 0.00 54 1012.7
20210915174124 84 214 1.0 13.0 0.00 0.00 0.00 54 1013.0
20210915173617 85 93 5.0 13.0 0.00 0.00 0.00 54 1012.7
20210915173111 84 95 2.0 10.0 0.00 0.00 0.00 54 1013.0
20210915172608 84 170 3.0 15.0 0.00 0.00 0.00 53 1013.0
20210915172059 84 162 3.0 15.0 0.00 0.00 0.00 54 1013.0
20210915171553 84 143 5.0 10.0 0.00 0.00 0.00 55 1013.0
20210915171050 83 122 4.0 13.0 0.00 0.00 0.00 56 1013.4
20210915170542 82 94 6.0 13.0 0.00 0.00 0.00 55 1013.4
20210915170036 83 158 6.0 13.0 0.00 0.00 0.00 54 1013.4
20210915165532 84 189 3.0 13.0 0.00 0.00 0.00 55 1013.4
20210915165024 83 80 2.0 13.0 0.00 0.00 0.00 57 1013.4
20210915164519 83 132 4.0 10.0 0.00 0.00 0.00 56 1013.7
20210915164015 83 76 3.0 13.0 0.00 0.00 0.00 56 1013.7
20210915163507 82 200 1.0 13.0 0.00 0.00 0.00 57 1013.7
20210915163001 82 84 2.0 10.0 0.00 0.00 0.00 58 1014.0
20210915162458 82 108 2.0 10.0 0.00 0.00 0.00 58 1014.0
20210915161949 82 182 0.0 10.0 0.00 0.00 0.00 58 1014.0
20210915161444 82 104 5.0 13.0 0.00 0.00 0.00 59 1014.0
20210915160940 80 98 6.0 13.0 0.00 0.00 0.00 59 1014.0
20210915160432 81 81 6.0 13.0 0.00 0.00 0.00 60 1014.0
20210915155926 81 67 5.0 15.0 0.00 0.00 0.00 59 1014.4
20210915155423 80 115 5.0 15.0 0.00 0.00 0.00 60 1014.4
20210915154915 82 113 4.0 8.0 0.00 0.00 0.00 58 1014.4
20210915154409 81 85 6.0 8.0 0.00 0.00 0.00 60 1014.4